Regional Weather Roundup
Issued by NWS San Diego, CA

Home | Current Version | Previous Version | Text Only | Print | Product List | Glossary On
Versions: 1 2 3 4 5 6 7 8 9 10 11 12 13 14 15 16 17 18 19 20 21 22 23 24 25 26 27 28 29 30 31 32 33 34 35 36 37 38 39 40 41 42 43 44 45 46 47 48 49 50
000
ASUS46 KSGX 040911
RWRSGX

SAN DIEGO HOURLY WEATHER ROUNDUP
NATIONAL WEATHER SERVICE SAN DIEGO CA
200 AM PDT SAT JUL 04 2015

NOTE: "FAIR" INDICATES FEW OR NO CLOUDS BELOW 12,000 FEET WITH NO
SIGNIFICANT WEATHER AND/OR OBSTRUCTIONS TO VISIBILITY.

CAZ042-043-060-061-PZZ750-775-041000-

GREATER SAN DIEGO AREA

CITY           SKY/WX    TMP DP  RH WIND       PRES   REMARKS
LINDBERGH FLD  CLOUDY    69  60  73 NW3       29.90F
POINT LOMA       N/A     64  60  86 N2          N/A
NATIONAL CITY    N/A     68  63  85 CALM      29.90F
CHULA VISTA      N/A     67  64  89 W1        29.82F
IMPERIAL BEACH CLOUDY    67  61  81 CALM      29.89F
BROWN FIELD    CLOUDY    64  61  90 W6        29.89F
MIRAMAR MCAS   CLOUDY    70  61  73 NW3       29.89F
MONTGOMERY FLD CLOUDY    68  61  78 NW3       29.90S

$$

NORTH SAN DIEGO COUNTY

CITY           SKY/WX    TMP DP  RH WIND       PRES   REMARKS
CAMP PENDLETON CLOUDY    67  60  78 CALM      29.88F
OCEANSIDE AP   CLOUDY    68  61  78 CALM      29.88S
OCEANSIDE HBR    N/A     67  64  90 W2        29.91S
VISTA            N/A     65  60  84 CALM      29.87S
CARLSBAD       CLOUDY    67  61  81 CALM      29.88F
DEL MAR          N/A     67  63  88 CALM      29.91S
LA JOLLA SCRIP   N/A    N/A N/A N/A CALM      29.86F
FALLBROOK        N/A     65  65 100 CALM      29.88F
ESCONDIDO        N/A     66  62  86 W1        29.89F
SAN MARCOS       N/A     65  61  86 CALM      29.86F
POWAY            N/A     64  60  87 CALM      29.90R

$$

EAST SAN DIEGO COUNTY

CITY           SKY/WX    TMP DP  RH WIND       PRES   REMARKS
RAMONA         MOCLDY    61  59  93 W5        29.91S FOG
LA MESA          N/A     65  62  89 CALM      29.64F
JAMUL            N/A     63  61  92 CALM      29.88S
DESCANSO N       N/A     61  56  82 E3        29.72F
CAMPO            N/A     60  56  86 N3        29.91F

$$

ORANGE COUNTY AND THE LOS ANGELES BASIN

CITY           SKY/WX    TMP DP  RH WIND       PRES   REMARKS
JOHN WAYNE AP  PTCLDY    65  61  87 SW3       29.88S
LAKE FOREST FR   N/A     61  57  85 CALM      29.78F
SANTA ANA        N/A     66  60  80 CALM      29.84S
HUNTINGTON BCH   N/A     62  60  93 CALM      29.90S
LOS ALAMITOS   FAIR      63  60  90 CALM      29.88F
FULLERTON      CLEAR     65  59  81 W3        29.87F
LONG BEACH     CLEAR     66  59  78 NW5       29.88F
L.A. AP        CLOUDY    62  60  93 SW6       29.89S
L.A. DOWNTOWN  CLOUDY    63  59  87 CALM      29.88F

$$

THE INLAND EMPIRE

CITY           SKY/WX    TMP DP  RH WIND       PRES   REMARKS
CORONA         CLOUDY    62  56  81 CALM      29.89S
CHINO          CLEAR     65  57  75 W6        29.89F
ONTARIO        CLEAR     67  57  70 W5        29.88F
RIVERSIDE AP   CLEAR     67  54  63 W5        29.89F
MORENO VALLEY    N/A     67  57  70 CALM      29.86F
MARCH ARB      CLEAR     66  52  60 W5        29.90F
HORSETHIEF CYN   N/A     65  54  65 CALM      29.82F
PERRIS           N/A     68  53  59 NW3         N/A
MENIFEE          N/A     68  63  83 CALM      29.95S
HEMET EAST       N/A     68  57  68 CALM      29.87S
FRENCH VALLEY  FAIR      63  59  88 S3        29.91S
TEMECULA         N/A     65  62  90 S2        29.86F

$$

SAN BERNARDINO AND RIVERSIDE COUNTY MOUNTAINS

CITY           SKY/WX    TMP DP  RH WIND       PRES   REMARKS
BIG BEAR AP    PTCLDY    52  30  43 CALM      30.22S
ANGELUS OAKS     N/A     64  37  38 CALM      29.72F
PINE COVE        N/A     67  32  27 N2        29.80F

$$

SOUTHERN DESERT INCLUDING THE COACHELLA VALLEY

CITY           SKY/WX    TMP DP  RH WIND       PRES   REMARKS
PALM SPRINGS   PTCLDY    91  54  28 NW14      29.72S
THOUSAND PALMS   N/A     88  56  33 W14       29.68S
PALM DESERT      N/A     89  58  35 CALM      31.33S
THERMAL        PTCLDY    91  57  31 NW9       29.66S
BLYTHE         PTCLDY    90  58  33 CALM      29.69F
IMPERIAL AP    PTCLDY    85  58  39 W8        29.66F
EL CENTRO NAS  PTCLDY    88  53  30 W8        29.68F
YUMA AZ        CLOUDY    94  60  32 CALM      29.69F

$$

UPPER DESERT

CITY           SKY/WX    TMP DP  RH WIND       PRES   REMARKS
VICTORVILLE AP PTCLDY    75  45  33 CALM      29.93F
HESPERIA         N/A     72  49  44 W5        29.86F
APPLE VALLEY     N/A     73  49  42 CALM      30.00F
PALMDALE       CLEAR     79  46  31 SW12      29.91F
LANCASTER      CLEAR     77  50  38 SW5       29.90S
EDWARDS AFB    PTCLDY    75  48  38 S8        29.87S
DAGGETT        CLOUDY    88  46  23 W13       29.83F
29 PALMS N     CLOUDY    90  38  16 N7        29.88F
NEEDLES        CLOUDY    99  49  18 SW14      29.72F HX  96

$$

REGIONAL REPORTS

CITY           SKY/WX    TMP DP  RH WIND       PRES   REMARKS
SANTA BARBARA  CLOUDY    63  59  87 E3        29.86R
SANDBERG       CLEAR     74  50  42 N9G20     30.06F
LAS VEGAS NV   MOCLDY    96  29   9 S16       29.75R
PHOENIX AZ     PTCLDY    89  65  44 SW6       29.74F
TIJUANA        CLOUDY    64  59  82 CALM      29.91F
ENSENADA NW      N/A     65  32  29 W6        29.85F

$$

OFFSHORE ISLANDS

CITY           SKY/WX    TMP DP  RH WIND       PRES   REMARKS
CATALINA ARPT  FOG       57  56  96 W5        29.92S VSB 3/4
SAN NICOLAS IS CLOUDY   N/A N/A N/A W10G20    29.89S

$$

MARINE AND OFFSHORE BUOY REPORTS

STATION/POSITION SKY/WX   TEMP    WIND        PRES    SWELL
                          AIR SEA DIR/SP/G            HT/PER/DIR
                          (F)     (DEG/KT/KT) (MB)    (FT/S/D)
TANNER BANKS               62 62  310/ 16/ 17 1012.6F   3/280/14
S CLEMENTE BASIN           63 68  320/ 10/ 14 1012.2R   3/230/16
SAN NICOLAS IS.               64                N/A     2/210/15
SO. S. ROSA ISLA           61 63  300/ 17/ 19 1011.0F   2/13
W. S. BARBARA CH           58 59  310/ 16/ 17 1011.0F   2/280/15
M. S. BARBARA CH           63 63  340/  4/  6 1011.4R
S. MONICA BASIN            63 68  280/  4/  6 1011.7F   3/260/ 6
S PEDRO CHANNEL               69                N/A     2/160/13
DANA POINT                    68                N/A     2/190/13
OCEANSIDE OFFSHR              70                N/A     2/200/17
TORREY PINES OTR              70                N/A     2/220/17
LA JOLLA 1                 67 68  320/  1/  2 1012.1F
MISSION BAY BUOY              71                N/A     2/210/17
SAN DIEGO BAY                 70              1012.8S
POINT LOMA SOUTH              71                N/A     2/220/17

$$




USA.gov is the U.S. government's official web portal to all federal, state and local government web resources and services.